Regional Weather Roundup
Issued by NWS

Home | Current Version | Previous Version | Text Only | Print | Product List | Glossary Off
Versions: 1 2 3 4 5 6 7 8 9 10 11 12 13 14 15 16 17 18 19 20 21 22 23 24 25 26 27 28 29 30 31 32 33 34 35 36 37 38 39 40 41 42 43 44 45 46 47 48 49 50

000
ASUS43 KLOT 270303
RWRIL

ILLINOIS REGIONAL WEATHER ROUNDUP
NATIONAL WEATHER SERVICE CHICAGO/ROMEOVILLE IL
1000 PM CDT THU MAY 26 2016

NOTE: "FAIR" INDICATES FEW OR NO CLOUDS BELOW 12,000 FEET WITH NO
SIGNIFICANT WEATHER AND/OR OBSTRUCTIONS TO VISIBILITY.

* THESE STATIONS ARE NOT UNDER NWS QUALITY CONTROL. THEY ALSO MAY NOT
  REPORT WEATHER SUCH AS PRECIPITATION OR FOG.

ILZ001-002-007-009-015-016-024-270400-
NORTHWEST ILLINOIS

CITY           SKY/WX    TMP DP  RH WIND       PRES   REMARKS
MOLINE         CLOUDY    77  63  61 SW7       29.87R
STERLING*      CLOUDY    78  64  61 CALM      29.89R HX  80
$$

ILZ003-004-008-010-011-017-018-270400-
NORTH CENTRAL ILLINOIS

CITY           SKY/WX    TMP DP  RH WIND       PRES   REMARKS
ROCKFORD       CLOUDY    74  64  71 CALM      29.89F
FREEPORT*      CLOUDY    69  61  76 CALM      29.90S
ROCHELLE*      CLOUDY    73  67  80 SE7       29.89S
$$

ILZ005-006-012>014-019>023-270400-
NORTHEAST ILLINOIS

CITY           SKY/WX    TMP DP  RH WIND       PRES   REMARKS
CHICAGO-OHARE  CLOUDY    79  63  57 NE3       29.88S HX  80
CHICAGO-MIDWAY MOCLDY    81  62  52 E6        29.88S HX  82
AURORA           N/A     75  68  78 NW3       29.89S
LANSING*       MOCLDY    73  64  73 S6        29.91S
WAUKEGAN       MOCLDY    67  63  87 CALM      29.88S
DUPAGE AIRPORT MOCLDY    73  65  75 N3        29.88S
WHEELING       MOCLDY    76  64  66 CALM      29.90R
NORTHERLY ISL    N/A     66  59  78 CALM        N/A
NORTHERLY ISL    N/A     66  59  78 CALM        N/A
$$

LMZ740>746-270400-
SOUTHERN LAKE MICHIGAN

STATION/POSITION SKY/WX   TEMP    WIND        PRES    VSBY  WAVE
                          AIR SEA DIR/SP/G                  HT/PER
                          (F)     (DEG/KT/KT) (MB)    (MI)  (FT/S)
SOUTHERN BUOY              56 50  160/  8/  8 1011.8          0
WILMETTE HARBOR            63 58  150/  4/  6   N/A           1
HARRISON CRIB              75     120/  3/  3   N/A
BURNHAM HARBOR             65      40/  2/  6   N/A
CALUMET HARBOR                                1011.8R
BURNS HARBOR               78     180/  8/ 13 1013.2R
MICHIGAN CITY              78     150/  9/ 10   N/A
MICHIGAN CITY 6N           69 62  160/  4/  6   N/A           1
ST. JOSEPH                 68 65  120/  4/  6   N/A           0
$$

ILZ025>027-034>036-040-047-049-050-058-095>099-270400-
WEST-CENTRAL ILLINOIS

CITY           SKY/WX    TMP DP  RH WIND       PRES   REMARKS
QUINCY         CLOUDY    75  69  81 SE7       29.90R
MACOMB*        CLOUDY    75  69  81 SE7       29.93R
PITTSFIELD*    CLOUDY    73  70  88 E3        29.92R
$$

ILZ028>032-037-038-041>044-048-051>054-059>061-270400-
CENTRAL ILLINOIS

CITY           SKY/WX    TMP DP  RH WIND       PRES   REMARKS
BLOOMINGTON    CLOUDY    71  70  97 S8        29.95R
DECATUR        CLOUDY    70  63  78 S9        29.94R
PEORIA         CLOUDY    75  68  78 S5        29.91R
SPRINGFIELD    MOCLDY    72  66  81 S6        29.93R
TAYLORVILLE    NOT AVBL
$$

ILZ033-039-045-046-055>057-062-063-270400-
EAST-CENTRAL ILLINOIS

CITY           SKY/WX    TMP DP  RH WIND       PRES   REMARKS
CHAMPAIGN      CLOUDY    68  65  90 S8        29.96R
MATTOON        CLOUDY    68  63  84 S12       29.96R
$$

ILZ079-100>102-270400-
SOUTHWEST ILLINOIS

CITY           SKY/WX    TMP DP  RH WIND       PRES   REMARKS
ALTON          CLOUDY    70  64  83 SE7       29.94R
BELLEVILLE     CLOUDY    71  69  95 VRB6      29.93R
CAHOKIA*       CLOUDY    75  65  70 S12       29.93R
SPARTA*        CLOUDY    69  64  84 S14G21    29.97R
$$

ILZ064>066-069>071-074>076-080>082-084>086-088>090-092>094-270400-
SOUTH-CENTRAL ILLINOIS

CITY           SKY/WX    TMP DP  RH WIND       PRES   REMARKS
CARBONDALE     CLOUDY    69  62  78 S17       29.98R
MT. VERNON     MOCLDY    66  61  82 S3        29.98R
SALEM*         CLOUDY    69  64  84 SE5       29.96R
$$

ILZ067-068-072-073-078-083-087-091-270400-
SOUTHEAST ILLINOIS

CITY           SKY/WX    TMP DP  RH WIND       PRES   REMARKS
LAWRENCEVILLE  CLOUDY    67  66  97 SW7       29.99R
FLORA*         CLOUDY    67  64  90 SE9       29.97S
HARRISBURG*    CLOUDY    68  64  88 S7        29.97F
ROBINSON*      CLOUDY    65  64  96 S6        29.99S
$$

ABBREVIATIONS USED IN REMARKS
   TC - TEMPERATURE IN CELSIUS
  WCI - WIND CHILL INDEX
   HX - HEAT INDEX
  VSB - VISIBILITY
$$




USA.gov is the U.S. government's official web portal to all federal, state and local government web resources and services.